TimeCST,TemperatureF,Dew PointF,Humidity,Sea Level PressureIn,VisibilityMPH,Wind Direction,Wind SpeedMPH,Gust SpeedMPH,PrecipitationIn,Events,Conditions,WindDirDegrees,DateUTC
12:55 AM,62.4,61.0,95,30.23,10.0,East,5.8,-,N/A,,Partly Cloudy,100,2012-11-12 06:55:00
1:55 AM,63.1,63.0,99,30.22,10.0,ESE,8.1,-,N/A,,Clear,110,2012-11-12 07:55:00
2:55 AM,62.4,62.4,100,30.21,10.0,East,4.6,-,N/A,,Clear,100,2012-11-12 08:55:00
3:55 AM,61.2,61.2,100,30.21,10.0,East,3.5,-,N/A,,Clear,80,2012-11-12 09:55:00
4:55 AM,60.8,60.8,100,30.21,10.0,East,4.6,-,N/A,,Clear,100,2012-11-12 10:55:00
5:55 AM,61.3,61.3,100,30.22,10.0,East,5.8,-,N/A,,Clear,90,2012-11-12 11:55:00
6:55 AM,61.5,61.5,100,30.25,10.0,East,3.5,-,N/A,,Clear,80,2012-11-12 12:55:00
7:55 AM,64.6,64.6,100,30.26,10.0,ESE,6.9,-,N/A,,Clear,110,2012-11-12 13:55:00
8:55 AM,70.9,68.2,91,30.25,10.0,ESE,9.2,-,N/A,,Clear,120,2012-11-12 14:55:00
9:55 AM,72.5,68.2,86,30.23,10.0,SE,16.1,20.7,N/A,,Clear,140,2012-11-12 15:55:00
10:55 AM,74.5,68.0,80,30.24,10.0,SSE,15.0,-,N/A,,Clear,160,2012-11-12 16:55:00
11:55 AM,75.7,68.7,79,30.23,10.0,SSE,10.4,-,N/A,,Partly Cloudy,160,2012-11-12 17:55:00
12:55 PM,76.5,68.9,77,30.21,10.0,SSE,11.5,-,N/A,,Partly Cloudy,150,2012-11-12 18:55:00
1:55 PM,74.1,68.7,83,30.19,10.0,SSE,10.4,-,N/A,,Partly Cloudy,150,2012-11-12 19:55:00
2:55 PM,73.6,68.5,84,30.19,10.0,South,9.2,-,N/A,,Partly Cloudy,170,2012-11-12 20:55:00
3:55 PM,72.1,68.7,89,30.19,10.0,SSE,9.2,-,N/A,,Scattered Clouds,150,2012-11-12 21:55:00
4:55 PM,69.3,68.0,96,30.19,10.0,SSE,6.9,-,N/A,,Partly Cloudy,150,2012-11-12 22:55:00
5:55 PM,68.2,67.6,98,30.19,10.0,SE,4.6,-,N/A,,Partly Cloudy,140,2012-11-12 23:55:00
6:55 PM,67.3,67.3,100,30.20,10.0,ESE,4.6,-,N/A,,Scattered Clouds,120,2012-11-13 00:55:00
7:55 PM,67.6,67.6,100,30.21,10.0,ESE,3.5,-,N/A,,Mostly Cloudy,120,2012-11-13 01:55:00
8:30 PM,68.0,68.0,100,30.21,10.0,NW,9.2,-,N/A,,Overcast,310,2012-11-13 02:30:00
8:38 PM,68.0,68.0,100,30.22,10.0,NNW,13.8,18.4,N/A,,Overcast,330,2012-11-13 02:38:00
8:55 PM,65.3,65.3,100,30.22,10.0,North,9.2,-,N/A,,Overcast,350,2012-11-13 02:55:00
9:03 PM,64.4,64.4,100,30.22,10.0,North,9.2,16.1,N/A,,Overcast,360,2012-11-13 03:03:00
9:06 PM,64.4,64.4,100,30.22,10.0,North,11.5,16.1,N/A,,Overcast,350,2012-11-13 03:06:00
9:27 PM,62.6,62.6,100,30.22,10.0,North,13.8,18.4,N/A,,Overcast,350,2012-11-13 03:27:00
9:39 PM,62.6,62.6,100,30.22,10.0,North,10.4,-,N/A,,Overcast,350,2012-11-13 03:39:00
9:42 PM,62.6,62.6,100,30.22,10.0,North,11.5,-,N/A,,Overcast,350,2012-11-13 03:42:00
9:55 PM,62.2,62.1,99,30.22,10.0,North,10.4,-,N/A,,Overcast,360,2012-11-13 03:55:00
10:05 PM,62.6,62.6,100,30.23,10.0,North,12.7,17.3,N/A,,Overcast,360,2012-11-13 04:05:00
10:10 PM,62.6,62.6,100,30.23,10.0,North,10.4,17.3,N/A,,Mostly Cloudy,350,2012-11-13 04:10:00
10:31 PM,62.6,60.8,94,30.22,10.0,North,12.7,-,N/A,,Overcast,10,2012-11-13 04:31:00
10:39 PM,62.6,60.8,94,30.22,10.0,North,11.5,-,N/A,,Mostly Cloudy,360,2012-11-13 04:39:00
10:46 PM,60.8,60.8,100,30.22,10.0,North,10.4,-,N/A,,Overcast,10,2012-11-13 04:46:00
10:55 PM,61.3,61.2,99,30.23,10.0,North,8.1,-,N/A,,Overcast,10,2012-11-13 04:55:00
11:00 PM,60.8,60.8,100,30.23,10.0,North,6.9,-,N/A,,Overcast,360,2012-11-13 05:00:00
11:29 PM,60.8,60.8,100,30.22,10.0,North,9.2,-,N/A,,Overcast,10,2012-11-13 05:29:00
11:35 PM,60.8,60.8,100,30.22,10.0,North,8.1,-,N/A,,Overcast,360,2012-11-13 05:35:00
11:52 PM,60.8,59.0,94,30.22,10.0,NNE,9.2,-,N/A,,Overcast,20,2012-11-13 05:52:00
11:55 PM,59.9,59.7,99,30.22,10.0,North,9.2,-,N/A,,Overcast,10,2012-11-13 05:55:00